FW8395 Weather Reports


Display with metric or nautical units.
time (UTC)temp
F
wind
direction
speed
MPH
gust
MPH
rain 1hr
in
rain 24hr
in
rain mn
in
humidity
%
barometer
mb
20260505153003 68 64 8.0 11.0 0.00 0.00 0.00 83 1005.7
20260505152501 68 36 3.0 10.0 0.00 0.00 0.00 84 1005.7
20260505151955 67 90 5.0 7.0 0.00 0.00 0.00 85 1005.9
20260505151451 66 84 6.0 10.0 0.00 0.00 0.00 86 1006.1
20260505150949 66 81 5.0 9.0 0.00 0.00 0.00 86 1006.1
20260505150445 66 80 2.0 10.0 0.00 0.00 0.00 86 1006.1
20260505140416 64 53 6.0 13.0 0.00 0.00 0.00 87 1006.5
20260505124829 66 99 5.0 7.0 0.00 0.00 0.00 80 1006.1
20260505124326 66 71 6.0 9.0 0.00 0.00 0.00 78 1006.4
20260505123822 66 79 4.0 7.0 0.00 0.00 0.00 77 1006.0
20260505123319 66 90 4.0 6.0 0.00 0.00 0.00 77 1006.2
20260505122815 66 20 9.0 9.0 0.00 0.00 0.00 76 1006.2
20260505122312 67 101 2.0 7.0 0.00 0.00 0.00 75 1006.0
20260505121809 66 77 5.0 5.0 0.00 0.00 0.00 75 1006.1
20260505121306 66 34 3.0 6.0 0.00 0.00 0.00 75 1005.9
20260505120802 67 94 5.0 7.0 0.00 0.00 0.00 74 1005.8
20260505120258 67 70 3.0 7.0 0.00 0.00 0.00 74 1005.6
20260505115757 67 72 3.0 7.0 0.00 0.00 0.00 74 1005.6
20260505115254 67 79 3.0 4.0 0.00 0.00 0.00 74 1005.5
20260505114752 67 75 2.0 6.0 0.00 0.00 0.00 73 1005.2
20260505114248 67 96 1.0 7.0 0.00 0.00 0.00 73 1005.5
20260505113745 67 0 2.0 7.0 0.00 0.00 0.00 73 1005.5
20260505113241 67 48 6.0 6.0 0.00 0.00 0.00 74 1005.2
20260505112737 67 79 4.0 6.0 0.00 0.00 0.00 73 1005.3
20260505112235 67 63 4.0 5.0 0.00 0.00 0.00 73 1005.3
20260505111735 67 95 4.0 5.0 0.00 0.00 0.00 73 1005.1
20260505111231 66 66 3.0 3.0 0.00 0.00 0.00 74 1005.1
20260505110727 66 63 2.0 5.0 0.00 0.00 0.00 73 1005.0
20260505110225 66 102 2.0 5.0 0.00 0.00 0.00 74 1004.9
20260505102200 66 70 5.0 7.0 0.00 0.00 0.00 74 1004.8
20260505101659 66 90 3.0 5.0 0.00 0.00 0.00 74 1004.6
20260505101154 66 87 3.0 8.0 0.00 0.00 0.00 74 1004.7
20260505100651 66 33 2.0 6.0 0.00 0.00 0.00 74 1004.8
20260505100148 66 90 1.0 11.0 0.00 0.00 0.00 74 1004.7
20260505095644 66 86 3.0 7.0 0.00 0.00 0.00 74 1004.9
20260505095142 66 90 3.0 6.0 0.00 0.00 0.00 74 1004.9
20260505094637 66 81 3.0 6.0 0.00 0.00 0.00 74 1005.0
20260505094134 66 102 4.0 6.0 0.00 0.00 0.00 74 1004.8
20260505093630 66 90 5.0 6.0 0.00 0.00 0.00 74 1005.0
20260505093127 66 88 4.0 5.0 0.00 0.00 0.00 74 1004.8
20260505092624 66 27 4.0 4.0 0.00 0.00 0.00 73 1004.6
20260505092123 67 106 0.0 5.0 0.00 0.00 0.00 72 1004.7
20260505091619 67 93 4.0 6.0 0.00 0.00 0.00 69 1004.7
20260505091118 67 60 0.0 3.0 0.00 0.00 0.00 69 1004.7
20260505090615 67 102 2.0 4.0 0.00 0.00 0.00 69 1004.7
20260505090113 67 60 3.0 5.0 0.00 0.00 0.00 69 1004.6
20260505085610 67 74 2.0 6.0 0.00 0.00 0.00 69 1004.4
20260505085109 67 66 5.0 5.0 0.00 0.00 0.00 69 1004.2
20260505084606 67 62 3.0 5.0 0.00 0.00 0.00 70 1004.6
20260505084104 67 94 3.0 6.0 0.00 0.00 0.00 70 1004.2
20260505083601 67 73 4.0 4.0 0.00 0.00 0.00 70 1004.2
20260505083058 67 90 2.0 6.0 0.00 0.00 0.00 70 1004.2
20260505082553 67 63 4.0 6.0 0.00 0.00 0.00 70 1004.0
20260505082051 66 109 0.0 2.0 0.00 0.00 0.00 71 1004.1
20260505081547 66 105 2.0 4.0 0.00 0.00 0.00 71 1004.2
20260505081044 66 63 3.0 5.0 0.00 0.00 0.00 72 1004.2
20260505080540 66 71 2.0 5.0 0.00 0.00 0.00 72 1004.1
20260505080037 66 96 3.0 3.0 0.00 0.00 0.00 72 1004.0
20260505075533 66 67 3.0 6.0 0.00 0.00 0.00 72 1004.1
20260505075030 66 86 2.0 4.0 0.00 0.00 0.00 72 1004.3
20260505074527 66 21 3.0 6.0 0.00 0.00 0.00 72 1004.2
20260505074024 66 100 2.0 5.0 0.00 0.00 0.00 71 1004.3
20260505073521 66 103 1.0 5.0 0.00 0.00 0.00 72 1004.3
20260505073020 67 73 2.0 6.0 0.00 0.00 0.00 71 1004.6
20260505072515 67 76 3.0 6.0 0.00 0.00 0.00 71 1004.8
20260505072011 67 87 3.0 8.0 0.00 0.00 0.00 71 1004.7
20260505071507 67 52 3.0 4.0 0.00 0.00 0.00 71 1005.1
20260505071006 67 10 3.0 3.0 0.00 0.00 0.00 71 1005.0
20260505070503 67 103 1.0 9.0 0.00 0.00 0.00 71 1005.1
20260505065958 67 90 3.0 6.0 0.00 0.00 0.00 72 1005.2
20260505065454 66 90 4.0 5.0 0.00 0.00 0.00 72 1005.6
20260505064951 66 115 2.0 5.0 0.00 0.00 0.00 72 1005.6
20260505064448 67 82 4.0 4.0 0.00 0.00 0.00 71 1005.8
20260505063947 67 45 3.0 4.0 0.00 0.00 0.00 73 1005.9
20260505063442 66 74 0.0 2.0 0.00 0.00 0.00 74 1006.0
20260505062939 66 114 1.0 2.0 0.00 0.00 0.00 74 1005.6
20260505062436 66 77 3.0 3.0 0.00 0.00 0.00 74 1005.6
20260505061933 66 73 2.0 3.0 0.00 0.00 0.00 77 1005.9
20260505061431 66 48 2.0 4.0 0.00 0.00 0.00 74 1006.1
20260505060928 66 4 2.0 3.0 0.00 0.00 0.00 73 1005.9
20260505060425 66 45 3.0 3.0 0.00 0.00 0.00 73 1005.7
20260505055922 66 86 3.0 7.0 0.00 0.00 0.00 72 1005.6
20260505055418 67 90 2.0 5.0 0.00 0.00 0.00 70 1005.9
20260505054915 67 74 2.0 5.0 0.00 0.00 0.00 69 1005.6
20260505054412 68 84 3.0 8.0 0.00 0.00 0.00 68 1006.2
20260505053910 68 131 0.0 3.0 0.00 0.00 0.00 68 1006.9
20260505053407 68 113 3.0 3.0 0.00 0.00 0.00 67 1007.3
20260505052903 68 96 2.0 3.0 0.00 0.00 0.00 67 1007.4
20260505052400 67 102 2.0 3.0 0.00 0.00 0.00 68 1007.7
20260505051858 67 352 3.0 4.0 0.00 0.00 0.00 68 1008.0
20260505051355 67 348 3.0 4.0 0.00 0.00 0.00 68 1007.3
20260505050853 67 0 2.0 3.0 0.00 0.00 0.00 69 1007.1
20260505050351 67 4 2.0 3.0 0.00 0.00 0.00 69 1006.9
20260505041319 68 74 0.0 3.0 0.00 0.00 0.00 65 1007.2
20260505040815 69 90 2.0 2.0 0.00 0.00 0.00 63 1007.1
20260505040313 68 114 0.0 1.0 0.00 0.00 0.00 63 1007.2
20260505035809 68 165 0.0 0.0 0.00 0.00 0.00 63 1007.1
20260505035305 69 75 0.0 2.0 0.00 0.00 0.00 62 1007.3
20260505034803 68 162 0.0 1.0 0.00 0.00 0.00 63 1007.2
20260505034259 69 114 0.0 1.0 0.00 0.00 0.00 63 1007.4
20260505033756 69 90 0.0 3.0 0.00 0.00 0.00 62 1007.6
20260505033254 68 90 1.0 2.0 0.00 0.00 0.00 65 1007.7
20260505032752 68 195 0.0 0.0 0.00 0.00 0.00 64 1007.4
20260505032247 69 188 0.0 1.0 0.00 0.00 0.00 64 1007.6
20260505031745 69 172 0.0 0.0 0.00 0.00 0.00 63 1007.7
20260505031241 69 66 0.0 0.0 0.00 0.00 0.00 63 1007.6
20260505030738 69 180 0.0 2.0 0.00 0.00 0.00 64 1007.4
20260505030234 69 172 0.0 0.0 0.00 0.00 0.00 64 1007.3
20260505025730 69 172 0.0 0.0 0.00 0.00 0.00 62 1007.6
20260505025228 70 172 0.0 0.0 0.00 0.00 0.00 61 1007.8
20260505024726 70 180 0.0 0.0 0.00 0.00 0.00 61 1007.9
20260505024223 70 180 0.0 0.0 0.00 0.00 0.00 60 1007.7
20260505023720 71 180 0.0 1.0 0.00 0.00 0.00 59 1007.6
20260505023218 71 166 0.0 1.0 0.00 0.00 0.00 58 1007.7
20260505022715 71 278 0.0 2.0 0.00 0.00 0.00 58 1007.5
20260505022212 71 102 0.0 0.0 0.00 0.00 0.00 58 1007.4
20260505021708 71 102 0.0 0.0 0.00 0.00 0.00 57 1007.3
20260505021206 71 117 0.0 1.0 0.00 0.00 0.00 57 1007.4
20260505020701 71 254 0.0 0.0 0.00 0.00 0.00 58 1007.2
20260505020157 71 180 0.0 1.0 0.00 0.00 0.00 57 1007.1
20260505015654 72 221 0.0 2.0 0.00 0.00 0.00 56 1007.2
20260505015151 73 173 0.0 1.0 0.00 0.00 0.00 56 1007.4
20260505014648 72 180 2.0 2.0 0.00 0.00 0.00 55 1007.1
20260505014145 73 188 0.0 0.0 0.00 0.00 0.00 54 1006.9
20260505013642 73 191 0.0 2.0 0.00 0.00 0.00 54 1006.8
20260505013139 73 198 1.0 2.0 0.00 0.00 0.00 53 1007.0
20260505012637 74 186 1.0 3.0 0.00 0.00 0.00 52 1006.7
20260505012134 74 172 2.0 3.0 0.00 0.00 0.00 52 1006.6
20260505011630 74 204 2.0 6.0 0.00 0.00 0.00 51 1006.5
20260505011127 75 180 0.0 4.0 0.00 0.00 0.00 51 1006.5
20260505010622 75 178 6.0 6.0 0.00 0.00 0.00 50 1006.4
20260505010119 75 175 1.0 7.0 0.00 0.00 0.00 51 1006.3
20260505005615 75 185 3.0 7.0 0.00 0.00 0.00 50 1006.3
20260505005112 75 189 4.0 7.0 0.00 0.00 0.00 51 1006.4
20260505004609 75 195 2.0 5.0 0.00 0.00 0.00 52 1006.4
20260505004106 75 180 3.0 4.0 0.00 0.00 0.00 51 1006.4
20260505003603 76 170 3.0 5.0 0.00 0.00 0.00 50 1006.5
20260505003101 76 180 2.0 4.0 0.00 0.00 0.00 51 1006.5
20260505002556 76 149 3.0 4.0 0.00 0.00 0.00 49 1006.4
20260505002055 77 180 4.0 5.0 0.00 0.00 0.00 49 1006.4
20260505001552 77 190 4.0 6.0 0.00 0.00 0.00 49 1006.4
20260505001049 77 180 3.0 6.0 0.00 0.00 0.00 47 1006.5
20260505000546 77 183 3.0 6.0 0.00 0.00 0.00 47 1006.5
20260505000044 78 179 5.0 11.0 0.00 0.00 0.00 46 1006.5
20260504235540 78 158 3.0 7.0 0.00 0.00 0.00 46 1006.5
20260504235037 78 169 4.0 10.0 0.00 0.00 0.00 46 1006.3
20260504234534 78 177 5.0 8.0 0.00 0.00 0.00 45 1006.7
20260504234031 78 165 6.0 6.0 0.00 0.00 0.00 46 1006.5
20260504233526 78 174 3.0 10.0 0.00 0.00 0.00 45 1006.8
20260504233023 78 171 4.0 10.0 0.00 0.00 0.00 46 1006.6
20260504232520 78 180 6.0 7.0 0.00 0.00 0.00 45 1006.8
20260504232018 78 169 5.0 9.0 0.00 0.00 0.00 46 1006.8
20260504231514 78 152 5.0 17.0 0.00 0.00 0.00 45 1006.5
20260504231010 78 175 5.0 7.0 0.00 0.00 0.00 45 1006.6
20260504230507 78 158 4.0 14.0 0.00 0.00 0.00 44 1006.7
20260504230006 78 165 5.0 7.0 0.00 0.00 0.00 44 1006.5
20260504225502 78 166 3.0 10.0 0.00 0.00 0.00 43 1006.3
20260504225000 78 176 2.0 11.0 0.00 0.00 0.00 45 1006.4
20260504224456 78 225 5.0 7.0 0.00 0.00 0.00 43 1006.6
20260504223953 78 172 3.0 10.0 0.00 0.00 0.00 43 1006.6
20260504223449 78 192 6.0 11.0 0.00 0.00 0.00 44 1006.8
20260504222945 79 187 14.0 15.0 0.00 0.00 0.00 42 1006.8
20260504222443 79 162 5.0 16.0 0.00 0.00 0.00 42 1006.8
20260504221940 79 168 5.0 13.0 0.00 0.00 0.00 42 1007.1
20260504221437 80 180 2.0 7.0 0.00 0.00 0.00 44 1006.8
20260504220934 80 143 5.0 11.0 0.00 0.00 0.00 42 1006.9
20260504220431 79 144 4.0 11.0 0.00 0.00 0.00 42 1007.0
20260504215928 80 176 4.0 7.0 0.00 0.00 0.00 42 1007.1
20260504215425 80 180 6.0 11.0 0.00 0.00 0.00 43 1007.2
20260504214921 79 164 6.0 10.0 0.00 0.00 0.00 43 1007.1
20260504214418 80 231 3.0 9.0 0.00 0.00 0.00 42 1007.4
20260504213914 80 251 1.0 10.0 0.00 0.00 0.00 44 1007.2
20260504213410 80 166 0.0 12.0 0.00 0.00 0.00 43 1007.2
20260504212908 80 169 5.0 8.0 0.00 0.00 0.00 42 1007.2
20260504212403 79 169 9.0 16.0 0.00 0.00 0.00 41 1007.6
20260504211902 80 216 5.0 7.0 0.00 0.00 0.00 43 1007.2
20260504211357 80 206 7.0 11.0 0.00 0.00 0.00 42 1007.4
20260504210855 80 183 3.0 13.0 0.00 0.00 0.00 44 1007.5
20260504210352 80 154 3.0 12.0 0.00 0.00 0.00 42 1008.0
20260504205849 80 110 5.0 12.0 0.00 0.00 0.00 41 1007.7
20260504205346 79 169 6.0 10.0 0.00 0.00 0.00 41 1007.7
20260504204844 80 219 4.0 15.0 0.00 0.00 0.00 41 1008.0
20260504204343 80 178 4.0 12.0 0.00 0.00 0.00 41 1007.9
20260504203842 80 203 1.0 17.0 0.00 0.00 0.00 41 1008.2
20260504203338 80 158 4.0 8.0 0.00 0.00 0.00 41 1008.3
20260504202834 81 202 4.0 11.0 0.00 0.00 0.00 41 1008.3
20260504202331 80 180 6.0 12.0 0.00 0.00 0.00 42 1008.4
20260504201828 80 174 7.0 12.0 0.00 0.00 0.00 40 1008.6
20260504201326 80 231 5.0 13.0 0.00 0.00 0.00 42 1008.9
20260504200823 82 180 3.0 5.0 0.00 0.00 0.00 41 1008.7
20260504200319 80 158 8.0 12.0 0.00 0.00 0.00 41 1008.8
20260504195815 81 128 2.0 9.0 0.00 0.00 0.00 43 1009.0
20260504195311 80 226 5.0 9.0 0.00 0.00 0.00 43 1008.9
20260504194808 78 198 17.0 18.0 0.00 0.00 0.00 42 1009.1
20260504194304 80 148 7.0 13.0 0.00 0.00 0.00 42 1009.3
20260504193800 79 144 8.0 15.0 0.00 0.00 0.00 41 1009.2
20260504193258 79 189 6.0 20.0 0.00 0.00 0.00 41 1009.3
20260504192756 81 139 5.0 10.0 0.00 0.00 0.00 43 1009.7
20260504192254 81 166 4.0 9.0 0.00 0.00 0.00 42 1009.4
20260504191753 80 162 3.0 12.0 0.00 0.00 0.00 42 1009.7
20260504191249 79 171 6.0 14.0 0.00 0.00 0.00 41 1009.6
20260504190745 80 287 11.0 14.0 0.00 0.00 0.00 42 1009.7
20260504190241 79 158 7.0 13.0 0.00 0.00 0.00 42 1009.8
20260504185738 79 209 3.0 11.0 0.00 0.00 0.00 40 1010.0
20260504185235 79 192 4.0 10.0 0.00 0.00 0.00 42 1009.9
20260504184731 78 130 4.0 14.0 0.00 0.00 0.00 42 1010.0
20260504184227 79 202 14.0 14.0 0.00 0.00 0.00 41 1010.1
20260504183723 79 181 5.0 9.0 0.00 0.00 0.00 42 1010.4
20260504183220 79 231 10.0 11.0 0.00 0.00 0.00 41 1010.5
20260504182718 78 263 3.0 8.0 0.00 0.00 0.00 41 1010.3
20260504182215 79 267 8.0 9.0 0.00 0.00 0.00 42 1010.6
20260504181713 79 208 4.0 9.0 0.00 0.00 0.00 40 1010.8
20260504181210 78 221 7.0 19.0 0.00 0.00 0.00 42 1010.6
20260504180709 79 139 5.0 10.0 0.00 0.00 0.00 42 1010.4
20260504180207 78 206 13.0 14.0 0.00 0.00 0.00 41 1010.5
20260504175704 78 161 4.0 12.0 0.00 0.00 0.00 41 1011.0
20260504175201 79 140 2.0 9.0 0.00 0.00 0.00 43 1010.8
20260504174659 78 142 7.0 15.0 0.00 0.00 0.00 40 1010.9
20260504174156 78 210 9.0 13.0 0.00 0.00 0.00 39 1010.9
20260504173652 78 179 6.0 11.0 0.00 0.00 0.00 41 1010.9
20260504173150 77 218 5.0 17.0 0.00 0.00 0.00 40 1011.0
20260504172646 78 263 5.0 7.0 0.00 0.00 0.00 40 1011.1
20260504172143 77 174 5.0 8.0 0.00 0.00 0.00 42 1011.1
20260504171639 77 202 2.0 11.0 0.00 0.00 0.00 40 1011.3
20260504171137 77 255 5.0 12.0 0.00 0.00 0.00 41 1011.4
20260504170633 77 175 6.0 11.0 0.00 0.00 0.00 42 1011.2
20260504170131 76 161 3.0 18.0 0.00 0.00 0.00 44 1011.4